Location: Bon Acre
(42.6442°N, 73.5758°W)
Time: 15:09:37
(UTC+00:00)

SKYMED 2 - Pass Details

Date: 14 December 2025
Orbit: 622 x 623 km, 97.9° (Epoch: 16 January)

Event Time Altitude Azimuth Distance (km) Brightness Sun altitude
Exits shadow 22:44:40 12° 24° (NNE) 1,843 5.6 -14.7°
Maximum altitude 22:48:32 53° 100° (E) 764 3.7 -15.4°
Drops below altitude 10° 22:52:45 10° 178° (S) 1,984 6.3 -16.1°
Sets 22:54:58 0° 183° (S) 2,885 7.3 -16.5°
